Flag for U.S.A. Weather past 2 weeks in Anaheim, California, U.S.A.

Now
70 °F

Clear.


Feels Like: 73 °F
Forecast: 65 / 83 °F
Wind: 6 mph from North

Location: Fullerton Municipal Airport

Current Time: Jul 10, 2014 at 11:15:22 PM

Latest Report: Jul 10, 2014 at 9:53 PM


Visibility: 10 mi

Pressure: 29.93 "Hg

Humidity: 73%

Dew point: 61 °F

Location of AnaheimLocation

Historic Weather in Anaheim — Graph

°F

Anaheim temperature yesterday

Maximum temperature yesterday: 87 °F (at 3:53 PM)
Minimum temperature yesterday: 70 °F (at 12:53 AM)
Average temperature yesterday: 77 °F

Past Weeks' High & Low Weather Summary

 TemperatureHumidityPressure
High93 °F (Jul 5, 3:53 PM)87% (Jul 4, 3:53 AM)30.01 "Hg (Jul 4, 3:53 AM)
Low66 °F (Jul 2, 12:53 AM)20% (Jul 5, 3:53 PM)29.79 "Hg (Jul 1, 5:53 PM)
Average74 °F65%29.88 "Hg
* Reported Jun 25 9:53 PM — Jul 10 9:53 PM, Anaheim, Weather by CustomWeather, © 2014

Note: Actual official high and low records may vary slightly from our data, if they occured in-between our weather recording intervals... More about our weather records

Advertising

Anaheim weather history for previous 24 hours

 ConditionsComfort  
Time TempWeatherWind HumidityBarometerVisibility
9:53 PM
Jul 10
70 °FClear.6 mph73%29.93 "Hg10 mi
8:53 PM71 °FSunny.7 mph71%29.91 "Hg10 mi
7:53 PM74 °FSunny.5 mph62%29.89 "Hg10 mi
6:53 PM79 °FSunny.7 mph52%29.87 "Hg10 mi
5:53 PM83 °FSunny.7 mph48%29.86 "Hg10 mi
4:53 PM84 °FSunny.8 mph46%29.86 "Hg10 mi
3:53 PM85 °FSunny.9 mph43%29.87 "Hg10 mi
2:53 PM83 °FSunny.7 mph50%29.88 "Hg10 mi
1:53 PM83 °FSunny.9 mph48%29.89 "Hg10 mi
12:53 PM83 °FSunny.10 mph48%29.90 "Hg10 mi
11:53 AM83 °FSunny.5 mph46%29.93 "Hg10 mi
10:53 AM79 °FSunny.3 mph50%29.94 "Hg10 mi
9:53 AM76 °FSunny.No wind58%29.96 "Hg10 mi
8:53 AM73 °FOvercast.3 mph64%29.97 "Hg10 mi
7:53 AM71 °FOvercast.No wind68%29.96 "Hg10 mi
6:53 AM70 °FOvercast.No wind71%29.95 "Hg10 mi
5:53 AM70 °FOvercast.5 mph73%29.93 "Hg10 mi
4:53 AM70 °FOvercast.5 mph71%29.92 "Hg10 mi
3:53 AM69 °FOvercast.No wind76%29.92 "Hg10 mi
2:53 AM69 °FOvercast.5 mph79%29.93 "Hg10 mi
1:53 AM70 °FOvercast.3 mph76%29.93 "Hg10 mi
12:53 AM70 °FOvercast.3 mph73%29.93 "Hg10 mi
11:53 PM
Jul 9
70 °FPassing clouds.6 mph76%29.94 "Hg10 mi
11:04 PM70 °FPassing clouds.No wind73%29.94 "Hg10 mi
Weather by CustomWeather, © 2014

See weather overviewHow to use our weather pages